KC2DUX Weather Reports


Display with metric or nautical units.
time (UTC)temp
F
wind
direction
speed
MPH
gust
MPH
rain 1hr
in
rain 24hr
in
rain mn
in
humidity
%
barometer
mb
20260902163101 80 90 3.0 11.0 0.00 0.10 0.00 75 1018.2
20260902162603 80 84 4.0 11.0 0.00 0.10 0.00 75 1018.2
20260902162102 80 74 3.0 11.0 0.00 0.10 0.00 75 1018.3
20260902161602 80 157 3.0 11.0 0.00 0.10 0.00 76 1018.3
20260902161059 80 119 4.0 9.0 0.00 0.10 0.00 74 1018.4
20260902160559 80 93 2.0 12.0 0.00 0.10 0.00 75 1018.3
20260902160057 79 116 1.0 12.0 0.00 0.10 0.00 77 1018.3
20260902155556 79 112 5.0 11.0 0.00 0.10 0.00 76 1018.4
20260902155056 79 82 5.0 11.0 0.00 0.10 0.00 76 1018.4
20260902154555 79 85 6.0 11.0 0.00 0.10 0.00 76 1018.3
20260902154054 79 112 7.0 11.0 0.00 0.10 0.00 76 1018.5
20260902153553 79 86 4.0 12.0 0.00 0.10 0.00 78 1018.5
20260902153054 79 90 5.0 12.0 0.00 0.10 0.00 78 1018.5
20260902152551 78 67 2.0 11.0 0.00 0.10 0.00 81 1018.5
20260902152058 78 121 4.0 12.0 0.00 0.10 0.00 81 1018.6
20260902151552 77 159 4.0 12.0 0.00 0.10 0.00 81 1018.8
20260902151052 77 124 2.0 9.0 0.00 0.10 0.00 82 1018.9
20260902150553 78 158 3.0 9.0 0.00 0.10 0.00 81 1018.9
20260902150051 78 98 1.0 6.0 0.00 0.10 0.00 83 1018.9
20260902145552 78 77 2.0 8.0 0.00 0.10 0.00 83 1018.9
20260902145050 78 69 3.0 11.0 0.00 0.10 0.00 82 1019.0
20260902144551 78 56 4.0 11.0 0.00 0.10 0.00 81 1018.9
20260902144049 79 134 6.0 11.0 0.00 0.10 0.00 79 1018.8
20260902143548 79 125 3.0 9.0 0.00 0.10 0.00 80 1018.8
20260902143047 79 97 1.0 9.0 0.00 0.10 0.00 82 1018.7
20260902142547 79 112 3.0 10.0 0.00 0.10 0.00 81 1018.6
20260902142047 79 117 2.0 8.0 0.00 0.10 0.00 82 1018.6
20260902141551 79 96 2.0 12.0 0.00 0.10 0.00 81 1018.6
20260902141044 78 122 3.0 12.0 0.00 0.10 0.00 83 1018.6
20260902140543 77 79 3.0 9.0 0.00 0.10 0.00 83 1018.6
20260902140042 77 132 1.0 10.0 0.00 0.10 0.00 85 1018.5
20260902135643 77 117 3.0 10.0 0.00 0.10 0.00 85 1018.5
20260902135042 77 116 3.0 13.0 0.00 0.10 0.00 85 1018.4
20260902134544 76 118 5.0 13.0 0.00 0.10 0.00 85 1018.4
20260902134039 76 136 4.0 11.0 0.00 0.10 0.00 86 1018.2
20260902133539 76 88 2.0 8.0 0.00 0.10 0.00 86 1018.2
20260902133040 76 117 2.0 8.0 0.00 0.10 0.00 85 1018.1
20260902132537 77 119 1.0 8.0 0.00 0.10 0.00 85 1018.0
20260902132037 77 51 2.0 8.0 0.00 0.10 0.00 85 1018.0
20260902131537 77 98 3.0 9.0 0.00 0.10 0.00 85 1017.8
20260902131039 77 155 2.0 9.0 0.00 0.10 0.00 86 1017.8
20260902130536 76 94 1.0 11.0 0.00 0.10 0.00 88 1017.8
20260902130037 76 126 4.0 8.0 0.00 0.10 0.00 88 1017.8
20260902125533 76 82 0.0 7.0 0.00 0.10 0.00 90 1017.8
20260902125032 75 76 1.0 8.0 0.00 0.10 0.00 90 1017.8
20260902124531 75 113 2.0 8.0 0.00 0.10 0.00 91 1017.7
20260902124030 75 73 2.0 7.0 0.00 0.10 0.00 91 1017.8
20260902123529 74 98 1.0 8.0 0.00 0.10 0.00 92 1017.8
20260902123028 74 134 2.0 8.0 0.00 0.10 0.00 92 1017.8
20260902122528 74 102 0.0 0.0 0.00 0.10 0.00 93 1017.9
20260902122026 74 120 0.0 4.0 0.00 0.10 0.00 93 1017.8
20260902121524 74 61 0.0 6.0 0.00 0.10 0.00 94 1017.7
20260902121023 74 67 2.0 6.0 0.00 0.10 0.00 94 1017.8
20260902120524 74 136 1.0 3.0 0.00 0.10 0.00 94 1017.9
20260902120021 73 80 0.0 6.0 0.00 0.10 0.00 95 1017.9
20260902115525 73 127 0.0 4.0 0.00 0.10 0.00 94 1017.9
20260902115018 73 73 0.0 4.0 0.00 0.10 0.00 94 1017.9
20260902114524 73 5 0.0 2.0 0.00 0.10 0.00 94 1017.9
20260902114019 73 22 0.0 3.0 0.00 0.10 0.00 94 1017.8
20260902113514 73 342 0.0 3.0 0.00 0.10 0.00 94 1017.7
20260902113018 73 57 1.0 3.0 0.00 0.10 0.00 94 1017.6
20260902112513 73 47 0.0 3.0 0.00 0.10 0.00 94 1017.7
20260902112012 72 59 1.0 3.0 0.00 0.10 0.00 94 1017.6
20260902111511 72 13 0.0 5.0 0.00 0.10 0.00 94 1017.5
20260902111011 72 11 1.0 5.0 0.00 0.10 0.00 94 1017.5
20260902110513 72 59 1.0 3.0 0.00 0.10 0.00 94 1017.4
20260902110009 72 76 1.0 3.0 0.00 0.10 0.00 94 1017.3
20260902105507 72 32 0.0 3.0 0.00 0.10 0.00 94 1017.3
20260902105010 72 58 0.0 5.0 0.00 0.10 0.00 94 1017.2
20260902104505 72 317 1.0 6.0 0.00 0.10 0.00 94 1017.2
20260902104003 72 46 0.0 4.0 0.00 0.10 0.00 94 1017.1
20260902103503 72 113 1.0 4.0 0.00 0.10 0.00 94 1017.1
20260902103002 72 355 0.0 8.0 0.00 0.10 0.00 94 1017.0
20260902102502 72 56 1.0 8.0 0.00 0.10 0.00 94 1016.9
20260902102002 72 53 0.0 4.0 0.00 0.10 0.00 94 1016.9
20260902101501 72 43 1.0 4.0 0.00 0.10 0.00 94 1016.8
20260902101001 72 346 0.0 5.0 0.00 0.10 0.00 94 1016.9
20260902100502 72 341 0.0 5.0 0.00 0.10 0.00 94 1016.9
20260902100002 72 345 0.0 2.0 0.00 0.10 0.00 94 1017.1
20260902095501 72 32 0.0 4.0 0.00 0.10 0.00 94 1017.0
20260902095100 72 84 1.0 4.0 0.00 0.10 0.00 94 1016.9
20260902094600 72 61 0.0 2.0 0.00 0.10 0.00 94 1016.9
20260902094059 72 80 0.0 2.0 0.00 0.10 0.00 94 1016.9
20260902093559 72 90 0.0 5.0 0.00 0.10 0.00 94 1016.8
20260902093058 72 112 0.0 5.0 0.00 0.10 0.00 94 1016.8
20260902092558 72 36 0.0 3.0 0.00 0.10 0.00 94 1016.8
20260902092057 72 60 1.0 3.0 0.00 0.10 0.00 94 1016.7
20260902091559 71 67 0.0 2.0 0.00 0.10 0.00 94 1016.7
20260902091100 72 34 0.0 3.0 0.00 0.10 0.00 94 1016.7
20260902090601 71 50 0.0 3.0 0.00 0.10 0.00 94 1016.6
20260902090057 71 313 0.0 4.0 0.00 0.10 0.00 94 1016.7
20260902085556 71 355 0.0 4.0 0.00 0.10 0.00 94 1016.7
20260902085055 71 51 1.0 4.0 0.00 0.10 0.00 94 1016.6
20260902084603 71 52 0.0 4.0 0.00 0.10 0.00 94 1016.6
20260902084055 71 63 0.0 5.0 0.00 0.10 0.00 94 1016.5
20260902083554 71 47 0.0 5.0 0.00 0.10 0.00 94 1016.5
20260902083055 71 360 0.0 3.0 0.00 0.10 0.00 94 1016.5
20260902082555 71 38 1.0 3.0 0.00 0.10 0.00 94 1016.6
20260902082054 71 347 0.0 4.0 0.00 0.10 0.00 94 1016.5
20260902081556 71 65 1.0 4.0 0.00 0.10 0.00 94 1016.5
20260902081053 71 107 0.0 3.0 0.00 0.10 0.00 94 1016.4
20260902080553 71 33 0.0 4.0 0.00 0.10 0.00 93 1016.5
20260902080052 71 46 1.0 4.0 0.00 0.10 0.00 94 1016.3
20260902075552 70 38 0.0 4.0 0.00 0.10 0.00 93 1016.2
20260902075055 70 59 1.0 5.0 0.00 0.10 0.00 93 1016.2
20260902074608 70 44 1.0 5.0 0.00 0.10 0.00 93 1016.2
20260902074051 70 55 0.0 3.0 0.00 0.10 0.00 93 1016.2
20260902073550 70 33 0.0 4.0 0.00 0.10 0.00 93 1016.2
20260902073053 70 46 0.0 3.0 0.00 0.10 0.00 93 1016.1
20260902072550 70 16 0.0 3.0 0.00 0.10 0.00 93 1016.1
20260902072050 70 26 0.0 2.0 0.00 0.10 0.00 93 1016.0
20260902071550 70 80 0.0 4.0 0.00 0.10 0.00 93 1015.8
20260902071049 70 119 1.0 4.0 0.00 0.10 0.00 93 1015.9
20260902070549 70 22 0.0 3.0 0.00 0.10 0.00 93 1016.0
20260902070050 70 360 0.0 3.0 0.00 0.10 0.00 93 1016.0
20260902065549 70 30 0.0 2.0 0.00 0.10 0.00 93 1015.9
20260902065049 70 28 0.0 2.0 0.00 0.10 0.00 93 1015.9
20260902064550 70 24 0.0 2.0 0.00 0.10 0.00 93 1016.1
20260902064047 70 343 0.0 2.0 0.00 0.10 0.00 93 1016.2
20260902063547 70 15 0.0 2.0 0.00 0.10 0.00 92 1016.1
20260902063108 71 15 0.0 3.0 0.00 0.10 0.00 92 1016.0
20260902062547 71 14 0.0 3.0 0.00 0.10 0.00 92 1016.1
20260902062046 71 36 0.0 2.0 0.00 0.10 0.00 92 1016.2
20260902061046 71 74 0.0 1.0 0.00 0.10 0.00 92 1016.2
20260902060544 71 26 0.0 2.0 0.00 0.10 0.00 92 1016.1
20260902055544 71 336 0.0 3.0 0.00 0.10 0.00 92 1016.1
20260902055045 71 336 0.0 3.0 0.00 0.10 0.00 92 1016.1
20260902054555 71 273 1.0 2.0 0.00 0.10 0.00 92 1015.9
20260902054045 71 330 0.0 1.0 0.00 0.10 0.00 92 1015.7
20260902053544 71 330 0.0 2.0 0.00 0.10 0.00 92 1016.0
20260902053043 71 330 0.0 2.0 0.00 0.10 0.00 92 1015.8
20260902052545 71 330 0.0 2.0 0.00 0.10 0.00 92 1015.3
20260902052042 72 330 0.0 2.0 0.00 0.10 0.00 92 1015.3
20260902051548 72 330 0.0 1.0 0.00 0.10 0.00 92 1015.6
20260902051042 72 330 0.0 2.0 0.00 0.10 0.00 91 1016.0
20260902050540 72 330 0.0 4.0 0.00 0.10 0.00 92 1016.0
20260902050038 72 265 1.0 4.0 0.00 0.10 0.00 92 1016.0
20260902045538 72 211 1.0 4.0 0.00 0.10 0.00 93 1016.0
20260902045037 71 235 1.0 4.0 0.00 0.10 0.00 92 1016.1
20260902044538 71 225 1.0 3.0 0.00 0.10 0.00 92 1016.0
20260902044034 71 325 0.0 2.0 0.00 0.10 0.00 92 1015.9
20260902043535 71 22 0.0 1.0 0.00 0.10 0.00 92 1015.7
20260902043034 71 79 0.0 1.0 0.00 0.10 0.00 92 1015.5
20260902042531 71 79 0.0 2.0 0.00 0.10 0.00 92 1015.7
20260902042030 71 88 0.0 2.0 0.00 0.10 0.00 92 1015.7
20260902041541 71 115 0.0 1.0 0.00 0.10 0.00 92 1015.7
20260902041026 71 115 0.0 3.0 0.00 0.10 0.00 92 1016.1
20260902040525 71 97 0.0 3.0 0.00 0.10 0.00 92 1016.1
20260902040027 71 104 0.0 2.0 0.00 0.10 0.00 92 1016.1
20260902035523 71 109 0.0 2.0 0.00 0.10 0.10 92 1016.1
20260902035024 71 206 0.0 3.0 0.00 0.10 0.10 91 1016.1
20260902034523 71 206 0.0 3.0 0.00 0.10 0.10 92 1016.3
20260902034023 71 223 2.0 3.0 0.00 0.10 0.10 91 1016.3
20260902033524 71 124 1.0 3.0 0.00 0.10 0.10 91 1016.3
20260902033023 71 80 1.0 4.0 0.00 0.10 0.10 90 1016.1
20260902032526 71 103 2.0 7.0 0.00 0.10 0.10 90 1016.1
20260902032022 71 105 2.0 6.0 0.01 0.10 0.10 90 1016.1
20260902031522 71 86 0.0 4.0 0.03 0.10 0.10 90 1016.4
20260902031024 71 107 1.0 3.0 0.05 0.10 0.10 90 1016.6
20260902030521 71 87 0.0 6.0 0.09 0.10 0.10 89 1016.7
20260902030021 71 141 0.0 6.0 0.10 0.10 0.10 89 1016.6
20260902025521 71 71 3.0 7.0 0.10 0.10 0.10 89 1016.4
20260902025023 71 123 3.0 9.0 0.10 0.10 0.10 88 1016.5
20260902024519 72 113 4.0 17.0 0.10 0.10 0.10 88 1016.6
20260902024020 73 340 7.0 19.0 0.10 0.10 0.10 86 1016.5
20260902023519 74 28 4.0 26.0 0.10 0.10 0.10 87 1016.7
20260902023019 76 51 8.0 26.0 0.10 0.10 0.10 86 1016.3
20260902022518 77 119 2.0 6.0 0.10 0.10 0.10 87 1016.0
20260902022018 78 72 0.0 10.0 0.09 0.09 0.09 86 1015.1
20260902021523 79 57 3.0 12.0 0.07 0.07 0.07 85 1014.4
20260902021018 80 28 2.0 16.0 0.05 0.05 0.05 83 1014.7
20260902020518 81 355 4.0 16.0 0.01 0.01 0.01 81 1014.6
20260902020018 81 61 4.0 12.0 0.00 0.00 0.00 81 1014.7
20260902015517 81 302 1.0 4.0 0.00 0.00 0.00 80 1013.9
20260902015017 81 273 1.0 4.0 0.00 0.00 0.00 80 1013.3
20260902014523 81 231 1.0 5.0 0.00 0.00 0.00 80 1013.1
20260902014015 81 287 2.0 6.0 0.00 0.00 0.00 81 1013.5
20260902013514 81 223 1.0 4.0 0.00 0.00 0.00 81 1012.8
20260902013014 81 209 1.0 4.0 0.00 0.00 0.00 81 1012.4
20260902012513 81 258 0.0 3.0 0.00 0.00 0.00 81 1013.2
20260902012014 81 236 1.0 3.0 0.00 0.00 0.00 81 1013.0
20260902011513 81 236 1.0 3.0 0.00 0.00 0.00 81 1013.1
20260902011010 81 244 0.0 1.0 0.00 0.00 0.00 82 1012.8
20260902010510 81 224 0.0 3.0 0.00 0.00 0.00 81 1012.6
20260902010010 81 306 1.0 3.0 0.00 0.00 0.00 82 1012.8
20260902005510 81 217 0.0 3.0 0.00 0.00 0.00 81 1012.5
20260902005010 82 217 1.0 3.0 0.00 0.00 0.00 81 1012.6
20260902004514 82 232 1.0 3.0 0.00 0.00 0.00 80 1012.7
20260902004008 82 222 1.0 3.0 0.00 0.00 0.00 80 1012.8
20260902003509 82 216 1.0 3.0 0.00 0.00 0.00 80 1012.9
20260902003135 82 216 1.0 3.0 0.00 0.00 0.00 80 1012.8
20260902002508 81 245 0.0 3.0 0.00 0.00 0.00 81 1013.0
20260902002007 81 259 0.0 1.0 0.00 0.00 0.00 82 1013.0
20260902001507 81 202 0.0 0.0 0.00 0.00 0.00 81 1012.7
20260902001006 82 202 0.0 1.0 0.00 0.00 0.00 81 1012.6
20260902000507 82 202 0.0 1.0 0.00 0.00 0.00 81 1012.4
20260902000007 82 202 0.0 1.0 0.00 0.00 0.00 80 1012.5
20260901235503 82 202 0.0 2.0 0.00 0.00 0.00 79 1012.7
20260901235003 83 202 1.0 2.0 0.00 0.00 0.00 79 1012.8
20260901234502 83 214 1.0 2.0 0.00 0.00 0.00 78 1012.7
20260901234002 83 214 0.0 3.0 0.00 0.00 0.00 78 1012.7
20260901233502 83 209 0.0 3.0 0.00 0.00 0.00 77 1012.8
20260901233102 84 209 1.0 3.0 0.00 0.00 0.00 76 1012.9
20260901232501 84 184 0.0 1.0 0.00 0.00 0.00 75 1013.0
20260901232001 84 184 0.0 1.0 0.00 0.00 0.00 74 1013.0
20260901231605 84 184 0.0 2.0 0.00 0.00 0.00 73 1013.0
20260901231059 84 184 0.0 2.0 0.00 0.00 0.00 73 1012.8
20260901230559 85 206 0.0 2.0 0.00 0.00 0.00 71 1012.9
20260901230059 85 203 0.0 3.0 0.00 0.00 0.00 71 1013.0
20260901225559 85 167 0.0 3.0 0.00 0.00 0.00 70 1013.0
20260901225058 86 201 1.0 3.0 0.00 0.00 0.00 69 1013.0
20260901224602 86 222 0.0 3.0 0.00 0.00 0.00 69 1012.9
20260901224059 86 224 0.0 3.0 0.00 0.00 0.00 68 1012.9
20260901223558 87 242 0.0 0.0 0.00 0.00 0.00 66 1012.8
20260901223058 87 219 0.0 0.0 0.00 0.00 0.00 65 1012.8
20260901222557 88 219 0.0 0.0 0.00 0.00 0.00 64 1012.9
20260901222056 88 217 0.0 0.0 0.00 0.00 0.00 63 1013.0
20260901221604 88 223 0.0 5.0 0.00 0.00 0.00 63 1013.0
20260901221055 88 237 1.0 7.0 0.00 0.00 0.00 64 1013.0
20260901220554 88 246 3.0 7.0 0.00 0.00 0.00 64 1013.0
20260901220053 88 230 4.0 7.0 0.00 0.00 0.00 64 1013.1
20260901215554 88 250 3.0 8.0 0.00 0.00 0.00 63 1013.2
20260901215054 89 190 4.0 7.0 0.00 0.00 0.00 63 1013.1
20260901214553 88 219 2.0 8.0 0.00 0.00 0.00 64 1013.1
20260901214052 89 230 3.0 8.0 0.00 0.00 0.00 64 1013.2
20260901213551 89 219 2.0 7.0 0.00 0.00 0.00 64 1013.3
20260901213051 89 273 3.0 7.0 0.00 0.00 0.00 63 1013.3
20260901212551 89 221 3.0 6.0 0.00 0.00 0.00 63 1013.4
20260901212051 89 315 3.0 7.0 0.00 0.00 0.00 63 1013.4
20260901211551 89 250 3.0 7.0 0.00 0.00 0.00 63 1013.4
20260901211049 89 253 2.0 7.0 0.00 0.00 0.00 64 1013.4
20260901210549 89 240 3.0 8.0 0.00 0.00 0.00 63 1013.5
20260901210108 89 292 3.0 8.0 0.00 0.00 0.00 62 1013.6
20260901205549 89 244 2.0 9.0 0.00 0.00 0.00 63 1013.4
20260901205050 89 251 3.0 6.0 0.00 0.00 0.00 62 1013.5
20260901204549 90 269 2.0 8.0 0.00 0.00 0.00 62 1013.4
20260901204047 89 275 2.0 10.0 0.00 0.00 0.00 64 1013.4
20260901203548 89 242 4.0 10.0 0.00 0.00 0.00 62 1013.3
20260901203046 89 242 4.0 6.0 0.00 0.00 0.00 63 1013.3
20260901202544 89 228 3.0 7.0 0.00 0.00 0.00 64 1013.3
20260901202045 89 219 4.0 7.0 0.00 0.00 0.00 64 1013.4
20260901201545 88 225 4.0 9.0 0.00 0.00 0.00 65 1013.4
20260901201044 88 327 3.0 8.0 0.00 0.00 0.00 65 1013.4
20260901200541 88 226 4.0 7.0 0.00 0.00 0.00 66 1013.6
20260901200040 88 234 0.0 7.0 0.00 0.00 0.00 65 1013.7
20260901195539 88 203 2.0 9.0 0.00 0.00 0.00 66 1013.9
20260901195039 88 292 3.0 9.0 0.00 0.00 0.00 66 1014.0
20260901194540 88 246 0.0 9.0 0.00 0.00 0.00 64 1014.0
20260901194042 89 319 5.0 9.0 0.00 0.00 0.00 64 1014.0
20260901193537 88 279 4.0 8.0 0.00 0.00 0.00 65 1014.1
20260901193041 88 248 4.0 9.0 0.00 0.00 0.00 64 1014.1
20260901192536 89 257 4.0 9.0 0.00 0.00 0.00 64 1014.0
20260901192035 88 272 3.0 7.0 0.00 0.00 0.00 65 1014.0
20260901191538 88 244 4.0 8.0 0.00 0.00 0.00 66 1014.0
20260901191035 87 255 4.0 8.0 0.00 0.00 0.00 67 1014.0
20260901190533 87 209 3.0 7.0 0.00 0.00 0.00 66 1014.1
20260901190030 87 241 3.0 6.0 0.00 0.00 0.00 67 1014.1
20260901185529 86 235 3.0 6.0 0.00 0.00 0.00 69 1014.2
20260901185028 86 243 3.0 8.0 0.00 0.00 0.00 70 1014.2
20260901184528 86 210 3.0 8.0 0.00 0.00 0.00 70 1014.3
20260901184028 86 218 0.0 7.0 0.00 0.00 0.00 71 1014.3
20260901183527 85 246 0.0 7.0 0.00 0.00 0.00 71 1014.3
20260901183027 85 229 0.0 4.0 0.00 0.00 0.00 71 1014.3
20260901182526 85 210 0.0 3.0 0.00 0.00 0.00 72 1014.3
20260901182029 85 213 0.0 6.0 0.00 0.00 0.00 73 1014.3
20260901181527 85 227 1.0 6.0 0.00 0.00 0.00 73 1014.3
20260901181024 85 257 3.0 7.0 0.00 0.00 0.00 74 1014.5
20260901180525 84 231 2.0 7.0 0.00 0.00 0.00 74 1014.5
20260901180030 84 229 3.0 7.0 0.00 0.00 0.00 74 1014.5
20260901175523 84 227 3.0 5.0 0.00 0.00 0.00 75 1014.6
20260901175022 84 252 2.0 5.0 0.00 0.00 0.00 74 1014.7
20260901174522 84 270 2.0 5.0 0.00 0.00 0.00 75 1014.7
20260901174024 84 250 2.0 8.0 0.00 0.00 0.00 74 1014.8
20260901173522 84 221 3.0 8.0 0.00 0.00 0.00 73 1014.8
20260901173020 84 257 3.0 10.0 0.00 0.00 0.00 72 1014.8
20260901172620 85 257 4.0 10.0 0.00 0.00 0.00 71 1014.8
20260901172020 86 77 3.0 10.0 0.00 0.00 0.00 70 1014.8
20260901171519 86 221 4.0 11.0 0.00 0.00 0.00 69 1014.8
20260901171018 86 220 4.0 11.0 0.00 0.00 0.00 71 1014.8
20260901170519 86 215 4.0 12.0 0.00 0.00 0.00 70 1014.9
20260901170016 86 218 6.0 12.0 0.00 0.00 0.00 71 1015.0
20260901165518 86 273 4.0 9.0 0.00 0.00 0.00 70 1015.1
20260901165017 86 271 4.0 8.0 0.00 0.00 0.00 71 1015.1
20260901164515 86 223 3.0 10.0 0.00 0.00 0.00 72 1015.0
20260901164014 85 211 4.0 10.0 0.00 0.00 0.00 73 1015.0
20260901163513 85 216 5.0 10.0 0.00 0.00 0.00 72 1015.1